Location: Courçay
(47.2523°N, 0.8761°E)
Time: 00:12:09
(UTC+00:00)

YAOGAN 1 - Pass Details

Date: 18 November 2025
Orbit: 605 x 607 km, 97.8° (Epoch: 05 December)

Event Time Altitude Azimuth Distance (km) Brightness Sun altitude
Rises 18:17:27 0° 165° (SSE) 2,852 5.9 -20.1°
Reaches altitude 10° 18:19:37 10° 165° (SSE) 1,953 5.0 -20.4°
Maximum altitude 18:23:52 89° 78° (ENE) 614 2.4 -21.2°
Drops below altitude 10° 18:28:09 10° 347° (NNW) 1,967 5.2 -21.9°
Sets 18:30:21 0° 347° (NNW) 2,876 6.1 -22.3°
